Preview of NWS' New Version of Forecast
This preview is not operational and should not be used for support decisions.

Regional Weather Roundup (RWR)

Issued by National Weather Service (NWS)

                            
000
ASUS44 KMEG 190500
RWRTN 
TENNESSEE HOURLY STATE WEATHER ROUNDUP
NATIONAL WEATHER SERVICE MEMPHIS TN
1200 AM CDT FRI APR 19 2019

TNZ002-004-019-021-049-052-054-088>092-190600-
WEST TENNESSEE
  
CITY           SKY/WX    TMP DP  RH WIND       PRES   REMARKS
MEMPHIS INTL   LGT RAIN  49  47  93 N16G28    29.67R FOG              
NWS MEMPHIS      N/A     48 N/A N/A MISG        N/A                   
JACKSON        LGT RAIN  51  50  96 N17       29.61R FOG              
DYERSBURG      LGT RAIN  49  47  93 N17G23    29.66R                  
$$

TNZ008-025-027-028-033-062-065-066-190600-
NORTH MIDDLE TENNESSEE
  
CITY           SKY/WX    TMP DP  RH WIND       PRES   REMARKS
NASHVILLE      LGT RAIN  60  57  89 SE8       29.59R                  
CLARKSVILLE    LGT RAIN  59  57  93 E5        29.54F FOG              
SMYRNA         CLOUDY    59  58  96 S5        29.61S                  
CROSSVILLE     LGT RAIN  60  57  89 S12G21    29.68F                  
$$

TNZ061-075-076-078-094-096-097-190600-
SOUTH MIDDLE TENNESSEE
  
CITY           SKY/WX    TMP DP  RH WIND       PRES   REMARKS
$$

TNZ017-018-042-046-047-190600-
NORTHEAST TENNESSEE
  
CITY           SKY/WX    TMP DP  RH WIND       PRES   REMARKS
TRI CITIES     MOCLDY    69  52  54 S8        29.74F                  
$$

TNZ012-013-036-069-073-074-190600-
CENTRAL EAST TENNESSEE
  
CITY           SKY/WX    TMP DP  RH WIND       PRES   REMARKS
KNOXVILLE      CLOUDY    74  52  46 S20G36    29.63F                  
OAK RIDGE      LGT RAIN  68  57  68 CALM      29.65F                  
$$

TNZ083-085-099-190600-
SOUTHEAST TENNESSEE
  
CITY           SKY/WX    TMP DP  RH WIND       PRES   REMARKS
CHATTANOOGA    RAIN      65  61  87 S9        29.69S FOG              
$$

SKY/WX REPORTED AS FAIR MEANS FEW OR NO CLOUDS BELOW
12 THOUSAND FEET.